Location: Colebrook
(42.0017°N, 73.0973°W)
Time: 19:57:49
(UTC-04:00)

Amateur Radio Satellites - All Passes

Search period start: 18 April 2014 19:27
Search period end: 19 April 2014 19:27
Location: Colebrook, 42.0017°N, 73.0973°W

Satellite Date Start Highest point End Downlink Frequencies (MHz)
Time Altitude Azimuth
JAS-2 18 Apr 19:35:12 19:41:03 58° 259° (W) 19:46:22 435.800 - 435.900 CW/SSB, 435.910 FM
HO-68 18 Apr 19:37:01 19:42:15 23° 56° (NE) 19:47:30 435.675 MHz FM
ISS 18 Apr 19:53:24 19:55:43 17° 8° (N) 19:58:01 145.800 FM
STRAND 1 18 Apr 20:14:59 20:19:53 49° 289° (WNW) 20:24:46 ?
Saudisat 1A 18 Apr 20:48:27 20:52:42 48° 242° (WSW) 20:56:54 436.775 MHz
HO-68 18 Apr 21:22:05 21:29:13 77° 255° (WSW) 21:36:24 435.675 MHz FM
ISS 18 Apr 21:29:53 21:33:07 42° 28° (NNE) 21:36:20 145.800 FM
FUNcube-1 18 Apr 21:39:24 21:42:28 20° 67° (ENE) 21:45:32 145.950 - 145.970 MHz USB
Oscar 11 18 Apr 21:50:25 21:54:44 85° 76° (ENE) 21:59:04 145.825 FM, Beacon 2401.500 USB
MaSat-1 18 Apr 22:10:27 22:13:23 63° 297° (WNW) 22:15:59 437.345 MHz
ISS 18 Apr 23:06:53 23:09:44 26° 225° (SW) 23:12:34 145.800 FM
FUNcube-1 18 Apr 23:14:49 23:18:41 35° 263° (W) 23:22:32 145.950 - 145.970 MHz USB
HO-68 18 Apr 23:15:14 23:18:01 12° 273° (W) 23:20:48 435.675 MHz FM
SO-50 18 Apr 23:16:11 23:19:20 18° 40° (NE) 23:22:31 436.795 FM
PCSat 18 Apr 23:56:46 00:00:49 22° 107° (ESE) 00:04:53 145.825 MHz
Sapphire 19 Apr 00:53:27 00:58:47 63° 116° (ESE) 01:04:09 437.095 MHz 1200 baud AX-25 AFSK
SO-50 19 Apr 00:55:46 01:00:25 75° 239° (WSW) 01:05:07 436.795 FM
Oscar 19 19 Apr 01:17:39 01:20:22 14° 90° (E) 01:23:05 437.125 CW, 437.150 USB
Oscar 16 19 Apr 01:25:08 01:28:41 18° 92° (E) 01:32:12 437.025 USB, Beacon 2401.1428
OPAL 19 Apr 01:37:28 01:41:31 25° 62° (ENE) 01:45:37 ?
PCSat 19 Apr 01:38:32 01:43:49 54° 304° (NW) 01:49:09 145.825 MHz
UOSAT-12 19 Apr 01:42:58 01:46:54 25° 44° (NE) 01:50:48 437.025 FM, 437.400 FM
Uribyol 2 19 Apr 01:59:00 02:02:42 20° 93° (E) 02:06:24 436.500 FM
KITSAT 1 19 Apr 02:09:34 02:16:22 31° 106° (ESE) 02:23:11 435.175 FM
Gurwin Techsat 1B 19 Apr 02:29:43 02:30:57 11° 88° (E) 02:32:11 435.225 FM
Oscar 10/S400 19 Apr 02:31:04 02:49:20 30° 132° (SE) 03:44:09 145.825 - 145.975 CW/USB, Beacon 145.810 USB
AO-27 19 Apr 02:37:59 02:42:55 43° 99° (E) 02:47:50 436.795 MHz FM
Sapphire 19 Apr 02:38:27 02:42:40 23° 315° (NW) 02:46:54 437.095 MHz 1200 baud AX-25 AFSK
ITAMSAT 1 19 Apr 02:48:46 02:53:51 54° 100° (E) 02:58:54 435.822 SSB
Oscar 19 19 Apr 02:55:02 03:00:14 71° 286° (WNW) 03:05:23 437.125 CW, 437.150 USB
AO-Echo 19 Apr 03:02:18 03:07:03 58° 101° (E) 03:11:40 ?
Oscar 16 19 Apr 03:03:17 03:08:22 56° 288° (WNW) 03:13:26 437.025 USB, Beacon 2401.1428
OPAL 19 Apr 03:15:25 03:20:09 42° 259° (W) 03:24:59 ?
TMSAT-1 19 Apr 03:15:54 03:20:00 23° 93° (E) 03:24:05 436.925 FM
UOSAT-12 19 Apr 03:22:45 03:27:16 47° 243° (WSW) 03:31:45 437.025 FM, 437.400 FM
PCSat 19 Apr 03:26:44 03:28:31 12° 326° (NW) 03:30:19 145.825 MHz
AO-40 19 Apr 03:31:25 08:43:40 35° 182° (S) 13:59:08 Beacon 2401.320
Uribyol 2 19 Apr 03:37:27 03:42:28 52° 289° (WNW) 03:47:28 436.500 FM
AO-7 19 Apr 03:59:52 04:05:24 19° 91° (E) 04:10:53 29.400 - 29.500 MHz
KITSAT 1 19 Apr 04:03:13 04:11:15 63° 306° (NW) 04:19:20 435.175 FM
Gurwin Techsat 1B 19 Apr 04:06:17 04:11:38 90° 104° (ESE) 04:16:56 435.225 FM
AO-27 19 Apr 04:18:04 04:22:11 24° 296° (WNW) 04:26:16 436.795 MHz FM
ITAMSAT 1 19 Apr 04:29:15 04:32:56 20° 298° (WNW) 04:36:38 435.822 SSB
JAS-1B 19 Apr 04:34:04 04:39:36 51° 100° (E) 04:45:19 435.800 - 435.900 CW/SSB
AO-Echo 19 Apr 04:42:25 04:45:19 16° 298° (WNW) 04:48:12 ?
TMSAT-1 19 Apr 04:55:06 05:00:09 46° 290° (WNW) 05:05:10 436.925 FM
Uosat F 19 Apr 04:58:37 05:03:38 74° 103° (ESE) 05:08:37 435.120 FM
Gurwin Techsat 1B 19 Apr 05:48:29 05:50:49 13° 302° (WNW) 05:53:09 435.225 FM
AO-7 19 Apr 05:50:47 05:59:09 88° 289° (WNW) 06:07:30 29.400 - 29.500 MHz
STRAND 1 19 Apr 05:52:54 05:57:21 31° 67° (ENE) 06:01:49 ?
KITSAT 1 19 Apr 06:02:47 06:08:27 20° 330° (NNW) 06:14:08 435.175 FM
RS-15 19 Apr 06:09:56 06:19:58 38° 108° (ESE) 06:29:42 29.354 - 29.394 USB, Beacon 29.352 USB
JAS-1B 19 Apr 06:25:47 06:29:58 22° 299° (WNW) 06:34:11 435.800 - 435.900 CW/SSB
Hamsat 19 Apr 06:28:01 06:31:45 27° 95° (E) 06:35:28 145.90 MHz
MaSat-1 19 Apr 06:33:25 06:35:45 21° 59° (ENE) 06:38:22 437.345 MHz
Uosat F 19 Apr 06:39:09 06:41:48 15° 300° (WNW) 06:44:26 435.120 FM
JAS-2 19 Apr 06:44:17 06:47:23 15° 92° (E) 06:50:36 435.800 - 435.900 CW/SSB, 435.910 FM
STRAND 1 19 Apr 07:31:55 07:36:29 32° 263° (W) 07:41:04 ?
AO-7 19 Apr 07:45:00 07:50:52 22° 309° (NW) 07:56:44 29.400 - 29.500 MHz
Sapphire 19 Apr 07:59:52 08:01:44 12° 35° (NE) 08:03:36 437.095 MHz 1200 baud AX-25 AFSK
Hamsat 19 Apr 08:03:59 08:07:40 27° 291° (WNW) 08:11:21 145.90 MHz
KITSAT 1 19 Apr 08:05:08 08:07:50 12° 1° (N) 08:10:31 435.175 FM
SO-67 19 Apr 08:09:44 08:13:15 76° 101° (ESE) 08:16:44 435.3500 MHz FM
MaSat-1 19 Apr 08:11:53 08:14:05 18° 249° (WSW) 08:16:33 437.345 MHz
RS-15 19 Apr 08:20:34 08:31:44 64° 309° (NW) 08:42:39 29.354 - 29.394 USB, Beacon 29.352 USB
JAS-2 19 Apr 08:27:34 08:32:54 70° 286° (WNW) 08:38:45 435.800 - 435.900 CW/SSB, 435.910 FM
PCSat 19 Apr 08:43:17 08:47:34 23° 45° (NE) 08:51:49 145.825 MHz
HO-68 19 Apr 08:50:40 08:55:40 20° 91° (E) 09:00:39 435.675 MHz FM
Oscar 11 19 Apr 09:39:06 09:41:41 15° 91° (E) 09:44:15 145.825 FM, Beacon 2401.500 USB
Sapphire 19 Apr 09:41:05 09:46:25 55° 56° (NE) 09:51:43 437.095 MHz 1200 baud AX-25 AFSK
KITSAT 1 19 Apr 10:01:09 10:07:06 22° 32° (NNE) 10:13:01 435.175 FM
PANSAT 19 Apr 10:20:23 10:21:22 11° 177° (S) 10:22:20 not established
PCSat 19 Apr 10:26:03 10:31:25 62° 245° (WSW) 10:36:44 145.825 MHz
HO-68 19 Apr 10:36:52 10:44:03 77° 289° (WNW) 10:51:13 435.675 MHz FM
RS-15 19 Apr 10:38:02 10:46:48 26° 339° (NNW) 10:55:31 29.354 - 29.394 USB, Beacon 29.352 USB
Saudisat 1A 19 Apr 10:55:16 10:59:25 39° 116° (ESE) 11:03:34 436.775 MHz
FUNcube-1 19 Apr 11:03:11 11:07:12 39° 98° (E) 11:11:16 145.950 - 145.970 MHz USB
Oscar 11 19 Apr 11:13:56 11:18:08 49° 287° (WNW) 11:22:20 145.825 FM, Beacon 2401.500 USB
Sapphire 19 Apr 11:25:24 11:29:25 22° 254° (WSW) 11:33:26 437.095 MHz 1200 baud AX-25 AFSK
KITSAT 1 19 Apr 11:55:59 12:04:06 70° 56° (NE) 12:12:08 435.175 FM
HO-68 19 Apr 12:26:34 12:30:36 16° 308° (NW) 12:34:39 435.675 MHz FM
ITAMSAT 1 19 Apr 12:31:54 12:33:42 12° 57° (ENE) 12:35:29 435.822 SSB
Oscar 19 19 Apr 12:34:35 12:38:31 23° 64° (ENE) 12:42:28 437.125 CW, 437.150 USB
Saudisat 1A 19 Apr 12:35:20 12:39:07 27° 314° (NW) 12:42:56 436.775 MHz
FUNcube-1 19 Apr 12:40:23 12:43:22 19° 294° (WNW) 12:46:23 145.950 - 145.970 MHz USB
AO-Echo 19 Apr 12:40:57 12:42:22 11° 58° (ENE) 12:43:46 ?
Oscar 16 19 Apr 12:42:21 12:46:41 28° 66° (ENE) 12:51:02 437.025 USB, Beacon 2401.1428
RS-15 19 Apr 12:56:00 13:04:18 24° 15° (NNE) 13:12:37 29.354 - 29.394 USB, Beacon 29.352 USB
Uribyol 2 19 Apr 13:17:07 13:21:38 31° 67° (ENE) 13:26:08 436.500 FM
Gurwin Techsat 1B 19 Apr 13:49:55 13:53:41 20° 62° (ENE) 13:57:27 435.225 FM
KITSAT 1 19 Apr 13:52:23 13:58:48 27° 255° (WSW) 14:05:11 435.175 FM
AO-27 19 Apr 13:56:29 14:01:38 69° 73° (ENE) 14:06:49 436.795 MHz FM
ITAMSAT 1 19 Apr 14:07:11 14:12:23 85° 75° (ENE) 14:17:35 435.822 SSB
Oscar 19 19 Apr 14:12:37 14:17:32 47° 261° (W) 14:22:32 437.125 CW, 437.150 USB
AO-Echo 19 Apr 14:15:05 14:20:20 80° 75° (ENE) 14:25:29 ?
Oscar 16 19 Apr 14:21:11 14:25:53 36° 263° (W) 14:30:39 437.025 USB, Beacon 2401.1428
Uosat F 19 Apr 14:36:36 14:39:09 14° 59° (ENE) 14:41:42 435.120 FM
TMSAT-1 19 Apr 14:36:54 14:41:42 37° 68° (ENE) 14:46:31 436.925 FM
Uribyol 2 19 Apr 14:56:26 15:01:02 33° 263° (W) 15:05:40 436.500 FM
AO-7 19 Apr 14:59:15 15:06:06 30° 56° (NE) 15:12:58 29.400 - 29.500 MHz
RS-15 19 Apr 15:09:17 15:19:57 53° 46° (NE) 15:30:48 29.354 - 29.394 USB, Beacon 29.352 USB
SO-50 19 Apr 15:11:41 15:15:38 31° 115° (ESE) 15:19:37 436.795 FM
JAS-1B 19 Apr 15:18:20 15:26:05 53° 70° (ENE) 15:32:36 435.800 - 435.900 CW/SSB
OPAL 19 Apr 15:24:29 15:29:34 49° 102° (ESE) 15:34:36 ?
Gurwin Techsat 1B 19 Apr 15:28:00 15:33:13 57° 259° (W) 15:38:27 435.225 FM
AO-27 19 Apr 15:38:53 15:41:39 14° 270° (W) 15:44:26 436.795 MHz FM
ISS 19 Apr 15:49:03 15:52:23 83° 144° (SE) 15:55:45 145.800 FM
ITAMSAT 1 19 Apr 15:50:54 15:52:31 11° 271° (W) 15:54:08 435.822 SSB
AO-Echo 19 Apr 15:57:31 15:59:38 12° 271° (W) 16:01:45 ?
Uosat F 19 Apr 16:12:16 16:17:18 78° 257° (WSW) 16:22:21 435.120 FM
TMSAT-1 19 Apr 16:17:07 16:21:40 29° 265° (W) 16:26:14 436.925 FM
AO-7 19 Apr 16:50:06 16:58:18 67° 255° (WSW) 17:06:34 29.400 - 29.500 MHz
SO-50 19 Apr 16:52:10 16:56:10 31° 313° (NW) 17:00:13 436.795 FM
OPAL 19 Apr 17:04:05 17:08:06 23° 299° (WNW) 17:12:08 ?
JAS-1B 19 Apr 17:09:49 17:16:48 31° 263° (W) 17:22:53 435.800 - 435.900 CW/SSB
RS-15 19 Apr 17:21:57 17:32:12 49° 249° (WSW) 17:42:46 29.354 - 29.394 USB, Beacon 29.352 USB
Hamsat 19 Apr 17:22:33 17:25:42 21° 67° (ENE) 17:28:52 145.90 MHz
ISS 19 Apr 17:26:45 17:29:28 22° 343° (NNW) 17:32:12 145.800 FM
UOSAT-12 19 Apr 17:34:07 17:38:28 47° 118° (ESE) 17:42:56 437.025 FM, 437.400 FM
JAS-2 19 Apr 18:40:27 18:46:03 50° 71° (ENE) 18:51:11 435.800 - 435.900 CW/SSB, 435.910 FM
SO-67 19 Apr 18:44:13 18:47:10 26° 71° (ENE) 18:50:08 435.3500 MHz FM
AO-7 19 Apr 18:50:20 18:52:35 11° 274° (W) 18:54:51 29.400 - 29.500 MHz
Hamsat 19 Apr 18:57:39 19:01:28 34° 263° (W) 19:05:21 145.90 MHz
ISS 19 Apr 19:04:57 19:07:06 16° 3° (N) 19:09:16 145.800 FM
UOSAT-12 19 Apr 19:15:07 19:18:52 24° 316° (NW) 19:22:40 437.025 FM, 437.400 FM
